sat.trackr.live / text

‹ back to catalog

STARLINK-5850

NORAD 57049 · 2023-088B

PAYLOAD ACTIVE UNKNOWN

§ Identity

Operator
Country
US
Launch date
2023-06-22
Launch site
AFWTR
Launch vehicle
Mass (kg)
RCS (m²)

Purposes: comms

External: N2YO · Heavens-Above · Gunter

§ Orbital elements

Epoch: 2026-05-24T10:32:13.580448Z

Period
94.29 min
Inclination
43.0032°
Eccentricity
0.0001543
Mean motion
15.27201087 rev/d
Perigee alt
483.1 km
Apogee alt
485.2 km
Semi-major
6,862.3 km
B*
2.8988e-3
RAAN
43.1885°
Arg perigee
177.9875°
Mean anomaly
182.0983°
Rev number
16,210

§ Raw data

STARLINK-58501 57049U 23088B   26144.43904607  .00079447  00000+0  28988-2 0  99932 57049  43.0032  43.1885 0001543 177.9875 182.0983 15.27201087162109

JSON: /api/v1/satellites/57049 · /tle

For live sub-satellite position, see the globe view (requires WebGL).

§ Visibility from observer

Set your observer location to see the next 7 days of passes ≥ 10°. The values pass through the URL so the page stays shareable.

No JS? Fill the form by hand. The geolocation button needs JavaScript.